Forside
METAR-TAF:

METAR-TAF

Lufthavne :

Tri-Township Airport

Savanna, Illinois, USA

Breddekreds: 42-02-45N, længdekreds: 090-06-28W, højde: 188 m

Aktuelle vejr

Denne rapport blev lavet for 21 minutter siden, kl. 11:55 UTC
Vind stille
Temperatur 2°C
Fugtighed 93%
Tryk 1019 hPa
Sigt: 16.1 km
Spredte skyer i en højde af 4300 ft
Overskyet i en højde af 5000 ft

METAR: KSFY 311155Z AUTO 00000KT 10SM SCT043 OVC050 02/01 A3010 RMK AO2

Tid: 07:16 (12:16 UTC)


TAF: fraværende

Vejrobservationer og prognoser fra mere end 4000 lufthavne (METAR og TAF).

De gule og røde prikker repræsenterer de meteorologiske stationer.

Flyt musen over at se navnet på stationen.

Så klik over at se vejr observationer og prognoser.

At skifte det kort: Klik på de grønne knapper med et sort kors for at zoome ind; på den grønne knap med en bindestreg for at zoome ud; eller på de grønne pile for tilstødende kort.


METAR-TAF: